Hourly Data Report for July 21, 2021

VICTORIA INTL A
BRITISH COLUMBIA
Current Station Operator: NAVCAN

48°38'50.000" N
123°25'33.000" W
19.50 m
1018621
71799
YYJ

Download Data

Hourly Data (July 2021)
Hourly Data Report for July 21, 2021
TIME
LST
Temp Definition
°C
Dew Point Definition
°C
Rel Hum Definition
%
Precip. Amount Definition
mm

Wind Dir Definition
10's deg

Wind Spd Definition
km/h
Visibility Definition
km
Stn Press Definition
kPa
Hmdx Definition


Wind Chill Definition


Weather Definition


00:00 16.0 8.5 61   29 25 32.2 101.55     LegendNANA
01:00 15.2 8.5 64   29 20 32.2 101.58     Mainly Clear
02:00
03:00 14.3 7.8 65   29 16 32.2 101.63     LegendNANA
04:00 14.0 7.6 65   29 15 48.3 101.65     Mainly Clear
05:00 14.2 7.6 64   30 20 32.2 101.66     LegendNANA
06:00 15.0 7.2 59   29 22 48.3 101.68     LegendNANA
07:00 15.6 7.4 58   30 19 32.2 101.71     Mainly Clear
08:00 16.9 7.7 54   29 9 32.2 101.72     LegendNANA
09:00 18.2 7.2 48   29 10 32.2 101.74     LegendNANA
10:00 19.8 7.2 44   10 8 32.2 101.73     Mainly Clear
11:00 20.0 7.7 45   12 11 32.2 101.73     LegendNANA
12:00 20.8 6.0 38   10 18 32.2 101.73     LegendNANA
13:00 20.9 8.3 44   9 14 32.2 101.74     Mainly Clear
14:00 20.6 7.8 43   7 11 32.2 101.75     LegendNANA
15:00 20.7 5.4 36   30 10 32.2 101.75     LegendNANA
16:00 21.7 5.8 35   27 18 32.2 101.70     Mainly Clear
17:00 21.6 5.9 36   28 20 32.2 101.69     LegendNANA
18:00 21.5 5.3 34   27 16 32.2 101.67     LegendNANA
19:00 19.9 6.2 40   27 19 32.2 101.70     Mainly Clear
20:00 18.0 6.5 47   27 17 32.2 101.72     LegendNANA
21:00 17.2 6.8 50   27 23 32.2 101.77     LegendNANA
22:00 15.8 8.3 61   27 17 32.2 101.79     Clear
23:00 15.4 8.6 64   28 19 32.2 101.81     LegendNANA

Notes on Data Quality.

Legend

  • E = Estimated
  • M = Missing
  • NA = Not Available*
  • [empty] = Indicates an unobserved value
Date modified: